Location: Bucquoy
(50.1391°N, 2.7097°E)
Time: 22:21:44
(UTC+00:00)

Cosmos 1048 Rocket - Pass Details

Date: 06 May 2021
Orbit: 743 x 791 km, 74.0° (Epoch: 21 June)

Event Time Altitude Azimuth Distance (km) Brightness Sun altitude
Rises 00:16:48 0° 336° (NNW) 3,294 8.2 -23.0°
Reaches altitude 10° 00:19:13 10° 338° (NNW) 2,357 7.3 -22.9°
Maximum altitude 00:24:35 76° 65° (ENE) 809 4.1 -22.8°
Enters shadow 00:26:20 43° 141° (SE) 1,081 4.4 -22.7°
